ONEWEB-0171

Last updated on April 25, 2021, 12:02 a.m. UTC

1 48070U 21025AE  21114.58336806 -.01038752  00000-0 -38748-1 0  9996
2 48070  87.4227 339.3120 0010500 150.2102 266.1792 15.30123143  1781
UTC
Height (km)
Latitude
Longitude
Inclination
Orbital Period
UTC large
Height (km)
Speed (km/s)
/
Latitude / Longitude
Inclination (degrees)
Orbital Period (minutes)
Azimuth
Elevation
Range (km)
Doppler Factor
iOS Compass Heading
iOS Angle

Next 30 passes for location: Hong Kong

Rise time Rise Azimuth (degrees) Set time Set Azimuth (degrees) Duration Max altitude (degrees)

No matching passes for this satellites